Location: Krakow
(50.0830°N, 19.9170°E)
Time: 17:44:23
(UTC+01:00)

Transit 2A - All Passes

Search period start: 11 December 2023 00:00
Search period end: 21 December 2023 00:00
Orbit: 601 x 953 km, 66.7° (Epoch: 10 December)

Date Brightness Start Highest point End Pass type
(mag) Time Alt. Az. Time Alt. Az. Time Alt. Az.
11 Dec - 12:33:21 10° SSE 12:36:24 16° ESE 12:39:18 10° ENE daylight
11 Dec - 14:14:01 10° SW 14:18:59 82° NW 14:23:33 10° NE daylight
11 Dec - 15:59:15 10° W 16:02:42 20° NNW 16:06:01 10° NNE daylight
11 Dec - 19:30:45 10° N 19:32:48 13° NNE 19:34:50 10° NE visible
11 Dec - 21:12:54 10° NNW 21:17:03 41° NE 21:21:15 10° ESE night (unlit)
11 Dec - 22:56:12 10° NW 23:00:00 30° WSW 23:03:53 10° S night (unlit)
12 Dec - 12:00:29 10° ESE 12:01:41 11° ESE 12:02:52 10° E daylight
12 Dec - 13:39:07 10° SSW 13:44:03 71° ESE 13:48:36 10° NE daylight
12 Dec - 15:23:37 10° W 15:27:31 25° NW 15:31:15 10° NNE daylight
12 Dec - 17:11:37 10° NNW 17:12:14 10° NNW 17:12:50 10° N visible
12 Dec - 18:56:09 10° N 18:57:28 11° NNE 18:58:48 10° NNE visible
12 Dec - 20:38:05 10° NNW 20:41:59 31° NE 20:45:55 10° ESE night (unlit)
12 Dec - 22:21:03 10° NW 22:25:11 44° WSW 22:29:25 10° S night (unlit)
13 Dec - 13:04:23 10° SSW 13:09:11 49° ESE 13:13:35 10° NE daylight
13 Dec - 14:48:07 10° WSW 14:52:24 32° NW 14:56:27 10° NNE daylight
13 Dec - 16:35:20 10° NW 16:36:53 11° NNW 16:38:25 10° N visible
13 Dec - 20:03:18 10° NNW 20:06:52 24° NE 20:10:26 10° E visible
13 Dec - 21:46:00 10° NW 21:50:19 66° WSW 21:54:45 10° SSE night (unlit)
14 Dec - 12:29:53 10° S 12:34:20 34° ESE 12:38:28 10° NE daylight
14 Dec - 14:12:45 10° WSW 14:17:20 42° NW 14:21:39 10° NNE daylight
14 Dec - 15:59:19 10° NW 16:01:35 13° NNW 16:03:47 10° N daylight
14 Dec - 19:28:32 10° NNW 19:31:41 19° NNE 19:34:49 10° ENE visible
14 Dec - 21:11:02 10° NW 21:15:24 85° NE 21:19:53 10° SE night (unlit)
14 Dec - 22:55:40 10° WNW 22:57:51 14° WSW 23:00:04 10° SW night (unlit)
15 Dec - 11:55:39 10° SSE 11:59:32 23° ESE 12:03:12 10° ENE daylight
15 Dec - 13:37:31 10° SW 13:42:19 58° NW 13:46:47 10° NNE daylight
15 Dec - 15:23:27 10° WNW 15:26:18 16° NNW 15:29:05 10° NNE daylight
15 Dec - 18:53:48 10° N 18:56:27 15° NNE 18:59:05 10° ENE visible
15 Dec - 20:36:08 10° NNW 20:40:26 59° NE 20:44:50 10° SE night (unlit)
15 Dec - 22:19:55 10° WNW 22:23:08 20° WSW 22:26:26 10° SSW night (unlit)
16 Dec - 11:21:48 10° SSE 11:24:46 16° ESE 11:27:38 10° ENE daylight
16 Dec - 13:02:27 10° SW 13:07:21 82° NW 13:11:54 10° NE daylight
16 Dec - 14:47:41 10° W 14:51:04 19° NNW 14:54:21 10° NNE daylight
16 Dec - 18:19:08 10° N 18:21:10 13° NNE 18:23:12 10° NE visible
16 Dec - 20:01:17 10° NNW 20:05:25 42° NE 20:09:38 10° ESE visible
16 Dec - 21:44:33 10° NW 21:48:22 30° WSW 21:52:16 10° S night (unlit)
17 Dec - 10:49:02 10° ESE 10:50:04 11° ESE 10:51:06 10° E daylight
17 Dec - 12:27:33 10° SSW 12:32:26 71° ESE 12:36:57 10° NE daylight
17 Dec - 14:12:03 10° W 14:15:54 24° NW 14:19:35 10° NNE daylight
17 Dec - 16:00:12 10° NNW 16:00:36 10° NNW 16:01:01 10° N daylight
17 Dec - 17:44:32 10° N 17:45:51 11° NNE 17:47:10 10° NNE visible
17 Dec - 19:26:27 10° NNW 19:30:20 31° NE 19:34:18 10° ESE visible
17 Dec - 21:09:24 10° NW 21:13:33 44° WSW 21:17:49 10° S night (unlit)
18 Dec - 11:52:49 10° SSW 11:57:33 48° ESE 12:01:55 10° NE daylight
18 Dec - 13:36:32 10° WSW 13:40:47 31° NW 13:44:48 10° NNE daylight
18 Dec - 15:23:47 10° NW 15:25:16 11° NNW 15:26:43 10° N daylight
18 Dec - 18:51:40 10° NNW 18:55:13 24° NE 18:58:49 10° E visible
18 Dec - 20:34:21 10° NW 20:38:40 66° WSW 20:43:08 10° SSE night (unlit)
19 Dec - 11:18:19 10° S 11:22:42 33° ESE 11:26:47 10° NE daylight
19 Dec - 13:01:10 10° WSW 13:05:43 42° NW 13:09:59 10° NNE daylight
19 Dec - 14:47:45 10° NW 14:49:57 13° NNW 14:52:06 10° N daylight
19 Dec - 18:16:54 10° NNW 18:20:02 19° NNE 18:23:12 10° ENE visible
19 Dec - 19:59:23 10° NW 20:03:45 85° NE 20:08:16 10° SE visible
19 Dec - 21:43:59 10° WNW 21:46:13 14° WSW 21:48:28 10° SW night (unlit)
20 Dec - 10:44:04 10° SSE 10:47:54 23° ESE 10:51:31 10° ENE daylight
20 Dec - 12:25:57 10° SW 12:30:41 58° NW 12:35:08 10° NNE daylight
20 Dec - 14:11:51 10° WNW 14:14:41 16° NNW 14:17:25 10° NNE daylight
20 Dec - 17:42:10 10° N 17:44:49 15° NNE 17:47:27 10° ENE visible
20 Dec - 19:24:29 10° NNW 19:28:47 59° NE 19:33:13 10° SE visible
20 Dec - 21:08:15 10° WNW 21:11:29 20° WSW 21:14:49 10° SSW night (unlit)
